Orbital Elements at Epoch 2459200.5 (2020-Dec-17.0) TDB
Reference: JPL 19 (heliocentric ecliptic J2000)
Element | Value | Uncertainty (1-sigma) | Units |
e | .02932540154743735 | 5.3947e-08 | |
a | 5.21163556737799 | 1.7578e-07 | au |
q | 5.058802261645724 | 3.9289e-07 | au |
i | 10.49745811256088 | 8.4135e-06 | deg |
node | 55.57437813128501 | 3.6938e-05 | deg |
peri | 243.8756987949471 | 0.00023429 | deg |
M | 273.5130361014163 | 0.00023762 | deg |
tp | 2460244.517159140089 (2023-Oct-27.01715914) | 0.0028849 | TDB |
period | 4345.69743633453 11.90 | 0.00021986 6.019e-07 | d yr |
n | .08284055787916281 | 4.191e-09 | deg/d |
Q | 5.364468873110257 | 1.8093e-07 | au |
|
| | Orbit Determination Parameters
Additional Information
|